Location: Unspecified
(34.4950°S, 58.5160°W)
Time: 01:36:12
(UTC+00:00)

SMAP - Pass Details

Date: 19 April 2026
Orbit: 681 x 683 km, 98.1° (Epoch: 12 May)

Event Time Altitude Azimuth Distance (km) Brightness Sun altitude
Rises 09:09:06 0° 22° (NNE) 3,032 6.8 -15.4°
Reaches altitude 10° 09:11:20 10° 26° (NNE) 2,125 6.0 -14.9°
Maximum altitude 09:15:55 61° 105° (ESE) 782 3.6 -14.0°
Drops below altitude 10° 09:20:34 10° 185° (S) 2,155 5.5 -13.0°
Sets 09:22:51 0° 188° (S) 3,079 6.3 -12.5°
